Flag for Spain Weather past 2 weeks in Santa Cruz de Tenerife, Canary Islands, Spain

59 °F

Partly sunny.

Feels Like: 56 °F
Forecast: 68 / 73 °F
Wind: 15 mph from Northwest

Location: Tenerife / Los Rodeos

Current Time: Nov 27, 2015 at 2:21:20 PM

Latest Report: Nov 27, 2015 at 2:00 PM

Visibility: N/A

Pressure: 30.12 "Hg

Humidity: 88%

Dew point: 55 °F

Location of Santa Cruz de TenerifeLocation

Historic Weather in Santa Cruz de Tenerife — Graph


Santa Cruz de Tenerife temperature yesterday

Maximum temperature yesterday: 64 °F (at 3:00 PM)
Minimum temperature yesterday: 55 °F (at 6:00 AM)
Average temperature yesterday: 59 °F

Past Weeks' High & Low Weather Summary

High73 °F (Nov 15, 1:00 PM)100% (Nov 13, 6:30 AM)30.45 "Hg (Nov 13, 6:30 AM)
Low55 °F (Nov 17, 6:30 AM)31% (Nov 15, 4:30 PM)30.12 "Hg (Nov 22, 3:30 PM)
Average62 °F78%30.27 "Hg
* Reported Nov 12 1:00 PM — Nov 27 1:00 PM, Santa Cruz de Tenerife, Weather by CustomWeather, © 2015

Note: Actual official high and low records may vary slightly from our data, if they occured in-between our weather recording intervals... More about our weather records


Santa Cruz de Tenerife weather history for previous 24 hours

Time TempWeatherWind HumidityBarometerVisibility
1:00 PM
Fri, Nov 27
59 °FLight rain. Broken clouds.16 mph88%30.15 "HgN/A
12:30 PM61 °FBroken clouds.15 mph83%30.15 "HgN/A
12:00 PM61 °FBroken clouds.14 mph88%30.18 "HgN/A
11:30 AM59 °FBroken clouds.13 mph88%30.18 "HgN/A
11:00 AM59 °FLight rain. Broken clouds.15 mph88%30.18 "HgN/A
10:30 AM59 °FLight rain. Broken clouds.14 mph88%30.18 "HgN/A
10:00 AM59 °FLight rain. Broken clouds.15 mph88%30.18 "HgN/A
9:30 AM59 °FBroken clouds.14 mph88%30.18 "HgN/A
9:00 AM57 °FPartly sunny.14 mph94%30.15 "HgN/A
8:30 AM57 °FPartly sunny.14 mph94%30.15 "HgN/A
8:00 AM57 °FPartly sunny.13 mph88%30.15 "HgN/A
6:30 AM55 °FPassing clouds.13 mph88%30.15 "HgN/A
6:00 AM55 °FPassing clouds.10 mph88%30.15 "HgN/A
11:00 PM
Thu, Nov 26
57 °FPassing clouds.15 mph88%30.21 "HgN/A
10:30 PM57 °FPassing clouds.10 mph88%30.21 "HgN/A
10:00 PM57 °FPassing clouds.16 mph88%30.21 "HgN/A
9:30 PM57 °FPassing clouds.13 mph82%30.21 "HgN/A
8:30 PM57 °FPassing clouds.13 mph88%30.21 "HgN/A
8:00 PM57 °FPassing clouds.12 mph88%30.21 "HgN/A
7:30 PM57 °FPartly cloudy.10 mph88%30.21 "HgN/A
7:00 PM59 °FPartly cloudy.9 mph88%30.21 "HgN/A
6:30 PM59 °FPartly cloudy.7 mph88%30.21 "HgN/A
6:00 PM59 °FDrizzle. Broken clouds.7 mph88%30.21 "HgN/A
5:30 PM59 °FDrizzle. Broken clouds.5 mph94%30.21 "Hg6 mi
5:00 PM59 °FDrizzle. Broken clouds.7 mph94%30.21 "Hg5 mi
4:30 PM61 °FDrizzle. Broken clouds.7 mph83%30.21 "Hg6 mi
4:00 PM63 °FPartly sunny.7 mph73%30.24 "HgN/A
3:30 PM63 °FScattered clouds.8 mph68%30.24 "HgN/A
3:00 PM64 °FScattered clouds.7 mph68%30.24 "HgN/A
2:30 PM63 °FScattered clouds.9 mph73%30.24 "HgN/A
2:00 PM63 °FScattered clouds.5 mph77%30.27 "HgN/A
Weather by CustomWeather, © 2015

See weather overviewHow to use our weather pages